Weather in Phergana

Uzbekistan     40°23′21″N   71°46′58″E
temp.,
°C
wind,
m/s
gust,
m/s
humid.,
%
clouds,
%
prec.,
mm/h
press.,
hPa
HPBL,
m
12 may, wed
wed1223:00+21sw36270 0.0 1013111
02:00+19s23330 0.0 101222
05:00+18ssw34350 0.0 101351
08:00+22w68410 0.0 1013670
11:00+26wnw55310 0.0 10121471
14:00+30w45140 0.0 10102576
17:00+29w66130 0.0 10092686
20:00+24w511240 0.0 1011307
13 may, thu
thu1323:00+18ese47575 0.0 1013190
02:00+18ne11520 0.0 101115
05:00+16ene22600 0.0 101120
08:00+21n11410 0.0 1012403
11:00+26n22260 0.0 10101672
14:00+29nne22190 0.0 10082740
17:00+30wnw11160 0.0 10072841
20:00+25wnw11220 0.0 100811
14 may, fri
fri1423:00+21sw333471 0.0 101037
02:00+21ese1138100 0.0 101011
05:00+20w0140100 0.0 101011
08:00+23w5633100 0.0 1012569
11:00+27w332689 0.0 10101225
14:00+30w111825 0.0 10082772
17:00+31sw21150 0.0 10072868
20:00+26s33210 0.0 100826
15 may, sat
sat1523:00+23wsw34270 0.0 100944
02:00+21ese11320 0.0 100911
05:00+20wsw11370 0.0 100912
08:00+24wnw23310 0.0 1010434
11:00+29wnw22230 0.0 10091397
14:00+32nne22150 0.0 10072751
17:00+32ene22120 0.0 10052882
20:00+27nne111797 0.0 100611
16 may, sun
sun1623:00+24s22211 0.0 100715
02:00+22sw11287 0.0 100611
05:00+20nnw01313 0.0 100811
08:00+26wnw45270 0.0 1009542
11:00+30w44230 0.0 10081446
14:00+33wnw34160 0.0 10062945
17:00+33w33130 0.0 10053577
20:00+26s45300 0.0 100765